This demonstration page uses our WeatherBlox Daily Observations layout. Learn more.

Left ArrowRight Arrow

31.31129, -92.44514

Hourly Observations for December 21, 2019

Temp ( °F °C ) Dew Point ( °F °C ) Humidity (%) Winds ( mph kmh ) Pressure ( in mb ) Visibility ( mi km ) Precip ( " mm )
12:53 am 00:53 Clear 45 7.2 38 3.3 77 77 NNW 3 6 30.35 1028 10 16 0.00 0.00
1:53 am 01:53 Clear 44 6.7 38 3.3 79 79 Calm 30.33 1027 10 16 0.00 0.00
2:53 am 02:53 Clear 43 6.1 39 3.9 86 86 Calm 30.33 1027 10 16 0.00 0.00
3:53 am 03:53 Mostly Cloudy 44 6.7 37 2.8 76 76 NNE 3 6 30.31 1027 10 16 0.00 0.00
4:53 am 04:53 Mostly Cloudy 44 6.7 39 3.9 83 83 WNW 6 9 30.32 1027 10 16 0.00 0.00
5:53 am 05:53 Mostly Cloudy 43 6.1 39 3.9 86 86 Calm 30.32 1027 10 16 0.00 0.00
6:53 am 06:53 Partly Cloudy 43 6.1 39 3.9 86 86 WNW 7 11 30.33 1027 10 16 0.00 0.00
7:53 am 07:53 Partly Cloudy 44 6.7 39 3.9 83 83 WNW 7 11 30.34 1027 10 16 0.00 0.00
8:53 am 08:53 Cloudy 46 7.8 40 4.4 79 79 NNW 5 7 30.34 1027 10 16 0.00 0.00
9:53 am 09:53 Cloudy 48 8.9 40 4.4 74 74 Calm 30.35 1028 10 16 0.00 0.00
10:53 am 10:53 Cloudy 49 9.4 41 5 74 74 NW 6 9 30.34 1027 10 16 0.00 0.00
11:53 am 11:53 Cloudy 50 10 41 5 71 71 NNW 7 11 30.31 1026 10 16 0.00 0.00
12:53 pm 12:53 Cloudy 52 11.1 42 5.6 69 69 Calm 30.29 1026 10 16 0.00 0.00
1:53 pm 13:53 Cloudy 53 11.7 43 6.1 69 69 N 6 9 30.27 1025 10 16 0.00 0.00
2:53 pm 14:53 Cloudy 54 12.2 43 6.1 67 67 NNE 6 9 30.26 1025 10 16 0.00 0.00
3:53 pm 15:53 Cloudy 53 11.7 43 6.1 69 69 N 6 9 30.26 1025 10 16 0.00 0.00
4:53 pm 16:53 Cloudy 52 11.1 43 6.1 72 72 N 8 13 30.27 1025 10 16 0.00 0.00
5:53 pm 17:53 Cloudy 51 10.6 43 6.1 74 74 N 8 13 30.28 1025 10 16 0.00 0.00
6:53 pm 18:53 Cloudy 50 10 43 6.1 77 77 N 9 15 30.27 1025 10 16 0.00 0.00
7:53 pm 19:53 Cloudy 49 9.4 43 6.1 80 80 N 5 7 30.28 1025 10 16 0.00 0.00
8:53 pm 20:53 Cloudy 49 9.4 43 6.1 80 80 NNW 5 7 30.28 1025 10 16 0.00 0.00
9:53 pm 21:53 Mostly Cloudy 46 7.8 43 6.1 89 89 NW 5 7 30.29 1026 10 16 0.00 0.00
10:05 pm 22:05 Mostly Cloudy 46 7.8 42 5.6 86 86 Calm 30.27 1025 10 16 0.00 0.00
10:16 pm 22:16 Cloudy 47 8.3 43 6.1 86 86 Calm 30.27 1025 10 16 0.00 0.00
10:53 pm 22:53 Cloudy 46 7.8 44 6.7 93 93 NW 6 9 30.28 1026 10 16 0.00 0.00
11:53 pm 23:53 Cloudy 47 8.3 44 6.7 90 90 NNW 5 7 30.26 1025 10 16 0.00 0.00

Powered by AerisWeather